Ailin Berg-Almaas V75 tips och andra gratis travtips

Här hittar du V75 tips och andra gratis travtips för kommande lopp med kusken Ailin Berg-Almaas. Samt statistik och resultat för senaste loppen som Ailin Berg-Almaas har tävlat i.

Aktuella/kommande tävlingsdagar

Datum Datum/bana/lopp Häst Distans/spår Rank
2024-06-01 2024-06-01 Mantorp-1 Kate River Kate River   [s 6] 2140/8 B

Nyheter för travkusk Ailin Berg-Almaas


Bäcklös Uriel vann det svenska kallblodskriteriet 2019, men sedan tappade han stilen och gick segerlös i nästan 3,5 år. I år har..


Bäcklös Uriel vann det svenska kallblodskriteriet 2019, men sedan tappade han stilen och gick segerlös i nästan 3,5 år. I år har han utvecklats enormt och vunnit sju lopp på tio starter.
På fredagskvällen delades V64Xpress® mellan Halmstad och Bollnäs och russinet i kakan var Bollnästravets Elitsprint med 150 000 kronor till vinnaren. Det blev en munsbit för Jan-Olov Perssons Bäcklös Uriel tillsammans med Mats E Djuse.
Bäcklös Uriel var snabb från start och tog ledningen efter 150 meter. Väl i den positionen valde Djuse att dra på i ett högt tempo. I sista sväng var det bara stallkamraten B.W.Sture som kunde hänga på. Upploppet blev odramatiskt och Bäcklös Uriel kom i mål på topptiden 1.18,7/1640 meter autostart. Det är bara Järsvösfaks som travat fortare mned 1.17,9/1640 meter autostart.
- Banan är vindsnabb och det var därför jag gasade på för att få ett fint rekord på hästen. Det här kunde man inte tro speciellt inte efter ifjol höstas. Han vann väl aldrig. Han gjorde gedigna lopp, men det var i en lägre klass och kunde inte slå dom hästarna då. Nu är han väl bäst i Sverige och det är en otrolig utveckling, sa Mats E Djuse.

Mot derbyt
I Halmstad imponerade Dubai Kronos när han vann Sommarstayern tillsammans med Mika Forss. Jerry Riordan har derby planer för Dubai Kronos och styrkan verkar det inte vara något fel på. Mika Forss körde tidigt till ledningen och ökade tempot successivt och Dubai Kronos vann lätt och såg ut att kunna springa ett varv till.
Favoriterna radade upp sig och det blev inga större pengar på V64®. Sex rätt betalar 135 kronor och det blev ingen utdelning på varken fem eller fyra rätt vilket betyder att det blir dubbeljackpot på måndag då tävlingarna avgörs på Eskilstuna.
Utanför V64-kupongen hade Daniel Redén fyra hästar i ett försök till Norrlands Grand Prix. Jättefavoriten Double Deceiver hade lekstuga tillsammans med Örjan Kihlström efter tidig ledningen och en visslande avslutning. Double Deceiver köptes till Sverige för fem miljoner kronor och har inlett med tre raka segrar.
Tillmans Duellen är en kuskmatch för kuskar med A-B eller K-licensinnehavare. Finalen vann av Ailin Berg-Almaas och Lucia Lane, tränad av William Ekberg. Lucia Lane var blixtsnabb från start och höll ledningen och drog sedan i ett bra tempo och var aldrig i närheten av förlust.

Joakim Brundin, Kanal 75

Tidigare tävlingsdagar

Datum Datum/bana/lopp Häst Distans/spår Rank Plac. Tid Odds
2019-12-10 2019-12-10 Östersund-7 Super Aristo* Super Aristo*   [v 11] 2140/12 D 3 16.8 486
2019-10-23 2019-10-23 Östersund-6 Super Aristo* Super Aristo*   [v 11] 2140/7 D 5 16.4 821
2019-08-17 2019-08-17 Östersund-6 Råsa Night Råsa Night   [s 7] 2140/1 D 5 25.8 34
2019-08-17 2019-08-17 Östersund-2 Mackie Girl Mackie Girl   [s 10] 2140/8 D 0 20.0 580
2019-04-04 2019-04-04 Östersund-9 Calvin Classic* Calvin Classic*   [v 8] 2140/10 C 5 18.5 199
2019-02-03 2019-02-03 Östersund-9 Calvin Classic* Calvin Classic*   [v 8] 2160/2 D 5 18.1 100
2020-12-17 2020-12-17 Östersund-3 Aas Balder* Aas Balder*   [v 12] 2180/7 B 0 g 451
2020-12-04 2020-12-04 Bollnäs-4 Fast Food Hanover Fast Food Hanover   [v 5] 2140/12 C 5 17.2 223
2020-11-26 2020-11-26 Bollnäs-3 Fast Food Hanover Fast Food Hanover   [v 5] 2140/9 C 5 15.7 74
2020-10-02 2020-10-02 Östersund-4 Aas Milla* Aas Milla*   [s 11] 2140/4 B 8 32.4 233
2020-08-01 2020-08-01 Rättvik-1 Ninepoints Lover Ninepoints Lover   [v 5] 2140/6 C 0 17.4 416
2020-07-15 2020-07-15 Eskilstuna-3 Ninepoints Lover Ninepoints Lover   [v 5] 2140/7 C 4 16.3 120
2020-06-27 2020-06-27 Bergsåker-1 Ninepoints Lover Ninepoints Lover   [v 5] 2140/1 B 2 14.5 31
2020-06-14 2020-06-14 Bollnäs-8 Ninepoints Lover Ninepoints Lover   [v 5] 2140/10 B 1 15.5 215
2020-02-26 2020-02-26 Östersund-2 Eclair Sisu Eclair Sisu   [s 6] 2140/9 A 0 17.9 313
2021-12-20 2021-12-20 Mantorp-3 StacksonStacksBore StacksonStacksBore   [v 6] 2140/1 D 4 18.4 142
2021-12-19 2021-12-19 Gävle-3 Elvis Tabac Elvis Tabac   [v 9] 2160/9 C 0 g 665
2021-12-18 2021-12-18 Romme-1 Volcan d'Inverne Volcan d'Inverne   [v 8] 2160/11 C 0 16.6 1393
2021-11-28 2021-11-28 Bergsåker-3 Hr Ford* Hr Ford*   [v 12] 2180/12 D 5 28.8 197
2021-11-27 2021-11-27 Axevalla-7 Yello Karsk Yello Karsk   [s 10] 2160/6 D 8 21.4g 884
2021-11-27 2021-11-27 Solvalla-1 Red Hot Roadster Red Hot Roadster   [v 4] 2140/5 B 3 16.0 57
2021-11-26 2021-11-26 Romme-2 Magiclight Magiclight   [s 6] 2160/4 C 3 16.7 683
2021-11-19 2021-11-19 Romme-6 Magiclight Magiclight   [s 6] 2140/4 D 7 17.3 1332
2021-11-19 2021-11-19 Romme-5 Digital Pro Digital Pro   [s 5] 2140/5 B 2 15.4 479
2021-11-14 2021-11-14 Solvalla-3 Aurora Borealis Aurora Borealis   [s 5] 2140/6 D 7 15.7g 100
2021-11-12 2021-11-12 Solvalla-8 Joyness Joyness   [s 6] 2160/13 C 0 17.4 1006
2021-11-12 2021-11-12 Solvalla-4 Wind Knight Wind Knight   [v 9] 1640/6 C 0 g 230
2021-11-05 2021-11-05 Bollnäs-3 Myrsjös Stalo Myrsjös Stalo   [v 7] 2180/13 B 0 29.9 915
2021-11-01 2021-11-01 Mantorp-3 Ninepoints Lover Ninepoints Lover   [v 6] 2140/7 C 1 16.7 66
2021-10-20 2021-10-20 Solvalla-3 Classic Joy Classic Joy   [s 9] 2140/2 C 0 g 1019
2021-10-18 2021-10-18 Rättvik-10 Järvsö Kristian Järvsö Kristian   [v 6] 1660/6 C str
2021-10-17 2021-10-17 Hagmyren-5 Ashbury Park Ashbury Park   [v 8] 2140/10 D 4 15.0 1833
2021-10-05 2021-10-05 Gävle-5 Aurora Borealis Aurora Borealis   [s 5] 1640/1 C 4 16.6 121
2021-10-02 2021-10-02 Romme-3 Ninepoints Lover Ninepoints Lover   [v 6] 2160/10 A 4 16.0 132
2021-10-01 2021-10-01 Solvalla-4 Silverette Silverette   [s 4] 2140/4 C 0 g 97
2021-09-28 2021-09-28 Eskilstuna-3 Lightzon Lightzon   [v 4] 2160/5 C 4 17.3 61
2021-09-27 2021-09-27 Romme-3 Järvsö Kristian Järvsö Kristian   [v 6] 2160/4 D 4 30.5g 791
2021-09-24 2021-09-24 Bergsåker-6 Hugo Bäck Hugo Bäck   [v 7] 2140/7 C 0 g 285
2021-09-19 2021-09-19 Hagmyren-7 Red Pond Peak Red Pond Peak   [v 9] 1660/9 C 5 15.4 130
2021-09-18 2021-09-18 Färjestad-2 Ninepoints Lover Ninepoints Lover   [v 6] 2140/5 C 0 14.5 197
2021-09-18 2021-09-18 Färjestad-1 Linus Boy Linus Boy   [v 9] 2140/10 B 2 12.9 75
2021-09-17 2021-09-17 Romme-5 Lightzon Lightzon   [v 4] 2140/10 D 3 18.2 198
2021-09-14 2021-09-14 Eskilstuna-2 Mogas Piggelin Mogas Piggelin   [s 7] 2140/7 D 6 17.8 239
2021-09-13 2021-09-13 Rättvik-7 Another Way to Pay Another Way to Pay   [v 6] 2140/1 D 4 17.9 75
2021-09-11 2021-09-11 Bollnäs-1 Patricia Zaz Patricia Zaz   [s 8] 1640/4 C 0 14.6 93
2021-09-08 2021-09-08 Solvalla-6 Cash Case Cash Case   [h 5] 1640/5 D 0 g 1164
2021-09-08 2021-09-08 Solvalla-3 Match Queen* Match Queen*   [s 8] 2140/9 D 4 14.9 466
2021-09-03 2021-09-03 Bollnäs-5 Red Pond Peak Red Pond Peak   [v 9] 2160/7 C 1 17.5 80
2021-08-28 2021-08-28 Bergsåker-1 Linus Boy Linus Boy   [v 9] 2140/1 C 0 g 201
2021-08-25 2021-08-25 Rättvik-10 Starstrucked Starstrucked   [s 4] 2140/10 B 2 17.2 52
2021-08-21 2021-08-21 Gävle-1 Ninepoints Lover Ninepoints Lover   [v 6] 2640/9 A 0 18.6 188
2021-08-19 2021-08-19 Östersund-4 Spang Trym* Spang Trym*   [v 11] 2140/2 D 0 g 927
2021-08-18 2021-08-18 Solvalla-1 Linus Boy Linus Boy   [v 9] 2140/1 C 3 13.9 405
2021-07-31 2021-07-31 Hagmyren-1 Mellby Galanga Mellby Galanga   [v 6] 2160/4 C 0 g 20
2021-07-30 2021-07-30 Romme-9 Linus Boy Linus Boy   [v 9] 1640/6 C 3 11.9 50
2021-07-26 2021-07-26 Rättvik-4 Starstrucked Starstrucked   [s 4] 2140/10 C 3 16.8 145
2021-07-25 2021-07-25 Axevalla-9 Celinn Palema Celinn Palema   [s 7] 2140/1 D 5 18.1 1207
2021-07-22 2021-07-22 Bergsåker-2 Mellby Galanga Mellby Galanga   [v 6] 1640/3 C 2 14.0 37
2021-07-18 2021-07-18 Lindesberg-7 Kruses Steam Track Kruses Steam Track   [v 12] 2180/5 D 5 18.5 185
2021-07-10 2021-07-10 Hoting-10 Patricia Zaz Patricia Zaz   [s 8] 1700/8 B 2 15.2 36
2021-07-02 2021-07-02 Solvalla-3 Mellby Galanga Mellby Galanga   [v 6] 1640/6 C str
2021-06-24 2021-06-24 Rättvik-1 Sonny Memphis Sonny Memphis   [v 9] 2140/4 D 2 19.0 148
2021-06-19 2021-06-19 Romme-7 Mellby Galanga Mellby Galanga   [v 6] 2140/4 D 1 14.5 70
2021-06-04 2021-06-04 Bergsåker-4 Mellby Galanga Mellby Galanga   [v 6] 1640/1 B 2 13.1 98
2021-06-01 2021-06-01 Östersund-6 Fanny Leader Fanny Leader   [s 6] 2140/7 B 5 17.4 1005
2021-06-01 2021-06-01 Östersund-4 Iwalu Iwalu   [s 6] 2140/1 B 3 15.6 170
2021-05-28 2021-05-28 Solvalla-9 Graces Candy Graces Candy   [s 4] 2140/2 A 1 14.5 36
2021-05-13 2021-05-13 Bergsåker-8 Leo Sunrise Leo Sunrise   [v 6] 2140/8 D 0 19.3 332
2021-04-24 2021-04-24 Romme-5 Match Queen* Match Queen*   [s 8] 2140/5 D 0 17.5g 213
2021-04-22 2021-04-22 Östersund-5 Ninepoints Lover Ninepoints Lover   [v 6] 2140/1 B 0 g 44
2021-02-04 2021-02-04 Bergsåker-3 Ninepoints Lover Ninepoints Lover   [v 6] 2140/2 D 3 16.8 82
2021-01-20 2021-01-20 Solvalla-2 Ninepoints Lover Ninepoints Lover   [v 6] 2140/11 C 0 g 757
2022-12-26 2022-12-26 Solvalla-2 Morotai Degato Morotai Degato   [v 7] 2140/2 C 4 17.1 149
2022-12-12 2022-12-12 Gävle-7 Kentucky Derby Kentucky Derby   [s 4] 2140/3 A 3 17.2 51
2022-12-12 2022-12-12 Gävle-5 Real Doc Real Doc   [v 10] 1640/10 D 0 17.9 2388
2022-12-10 2022-12-10 Romme-10 Lill Hans Lill Hans   [v 5] 2180/7 B 3 30.3g 37
2022-12-04 2022-12-04 Mantorp-3 Lucia Lane Lucia Lane   [s 5] 1640/5 A 1 13.2 18
2022-12-03 2022-12-03 Bergsåker-1 Morotai Degato Morotai Degato   [v 7] 1640/1 C 3 13.5 59
2022-11-26 2022-11-26 Solvalla-1 Creek's Nu Love* Creek's Nu Love*   [s 4] 2140/6 B 4 15.4 30
2022-11-23 2022-11-23 Bergsåker-3 Dekanen K.* Dekanen K.*   [v 7] 2140/2 D 0 15.3 401
2022-11-11 2022-11-11 Solvalla-5 Carelya Carelya   [s 5] 1640/3 A 0 14.6 139
2022-11-09 2022-11-09 Solvalla-2 Cash Case Cash Case   [h 6] 2180/6 D 6 20.5 738
2022-10-30 2022-10-30 Hagmyren-8 Carelya Carelya   [s 5] 2160/7 A 1 17.5 31
2022-10-19 2022-10-19 Solvalla-6 Imperial Tooma Imperial Tooma   [s 10] 2140/8 D 0 15.3 2359
2022-10-14 2022-10-14 Östersund-5 Eddie Brogård* Eddie Brogård*   [v 6] 2140/4 B 0 g 94
2022-10-08 2022-10-08 Åby-6 Linus Boy Linus Boy   [v 10] 2140/4 D 0 g 99
2022-10-03 2022-10-03 Gävle-5 Yavapai Point Yavapai Point   [h 4] 2140/2 A 0 g 61
2022-09-30 2022-09-30 Bollnäs-4 Creek's Nu Love* Creek's Nu Love*   [s 4] 2140/5 A 1 14.4 31
2022-09-13 2022-09-13 Eskilstuna-7 Digital Carpet Digital Carpet   [s 5] 2140/2 D 6 18.9 786
2022-09-13 2022-09-13 Eskilstuna-1 Yavapai Point Yavapai Point   [h 4] 2140/10 A 1 15.7 33
2022-08-20 2022-08-20 Örebro-1 Ashbury Park Ashbury Park   [v 9] 2100/1 D 6 16.2 297
2022-08-17 2022-08-17 Solvalla-1 Linus Boy Linus Boy   [v 10] 2140/4 B 2 13.2 67
2022-08-06 2022-08-06 Rättvik-1 Canzone Canzone   [v 5] 2140/1 D 7 16.1 1126
2022-07-31 2022-07-31 Solvalla-8 Ashbury Park Ashbury Park   [v 9] 2160/6 D 2 15.9 107
2022-07-31 2022-07-31 Solvalla-1 Cash Case Cash Case   [h 6] 2140/2 D 7 18.2 264
2022-07-30 2022-07-30 Bollnäs-1 Swisha Swisha   [s 5] 2140/2 B 3 16.1 134
2022-07-25 2022-07-25 Solvalla-3 Digital Carpet Digital Carpet   [s 5] 1640/4 D 0 16.7 1343
2022-07-04 2022-07-04 Rättvik-7 Melizza Melizza   [s 8] 2140/2 D 6 17.0 654
2022-06-11 2022-06-11 Östersund-8 Creek's Nu Love* Creek's Nu Love*   [s 4] 2140/11 D 7 15.2 699
2022-06-11 2022-06-11 Östersund-1 Coogan Coogan   [v 8] 2140/8 B str
2022-06-04 2022-06-04 Hagmyren-8 La Dama Futura La Dama Futura   [s 9] 2160/4 A 0 g 487
2022-06-03 2022-06-03 Rättvik-3 Jupiter Sånna Jupiter Sånna   [v 11] 1660/10 C 0 16.5 593
2022-05-26 2022-05-26 Bergsåker-5 Eddie Brogård* Eddie Brogård*   [v 6] 2140/4 D 5 16.2 125
2022-05-26 2022-05-26 Bergsåker-4 Axe Brogård* Axe Brogård*   [v 10] 1640/2 B 0 g 22
2022-05-26 2022-05-26 Bergsåker-3 Komnes Bork* Komnes Bork*   [h 8] 2160/6 A 3 26.1 70
2022-05-26 2022-05-26 Bergsåker-1 Red Pond Peak Red Pond Peak   [v 10] 1640/8 C str
2022-05-11 2022-05-11 Solvalla-5 Celinn Palema Celinn Palema   [s 8] 1640/7 D 5 16.9 768
2022-05-04 2022-05-04 Bergsåker-3 Mr Micman* Mr Micman*   [v 10] 1640/2 D str
2022-04-29 2022-04-29 Romme-7 Amour Dimanche Amour Dimanche   [v 5] 2140/1 C 4 14.2 114
2022-04-29 2022-04-29 Romme-3 Järvsö Kristian Järvsö Kristian   [v 7] 1660/6 D 2 28.2 739
2022-04-26 2022-04-26 Eskilstuna-5 Drömsaga Drömsaga   [s 10] 2180/6 D 0 33.1g 760
2022-04-24 2022-04-24 Solvalla-2 Princess Orlando Princess Orlando   [s 9] 1640/6 D 5 15.2 62
2022-04-15 2022-04-15 Eskilstuna-7 Digital Carpet Digital Carpet   [s 5] 2140/4 D 8 18.9g 860
2022-04-14 2022-04-14 Gävle-1 S.G.'s Ambrosia S.G.'s Ambrosia   [s 6] 2140/8 C 5 16.2 509
2022-04-09 2022-04-09 Bollnäs-3 Vikinga Vilja Vikinga Vilja   [s 7] 2140/2 C 0 40.6g 178
2022-04-08 2022-04-08 Östersund-5 Creek's Toxic* Creek's Toxic*   [s 7] 2140/2 D 0 19.6 865
2022-04-08 2022-04-08 Östersund-3 Dark Moni* Dark Moni*   [v 7] 2140/7 D 3 17.7 582
2022-04-08 2022-04-08 Östersund-1 Eddie Brogård* Eddie Brogård*   [v 6] 2140/3 C 1 17.2 183
2022-04-02 2022-04-02 Bergsåker-1 Green Bax Green Bax   [v 11] 2140/4 D 0 15.6 897
2022-04-01 2022-04-01 Solvalla-8 S.G.'s Ambrosia S.G.'s Ambrosia   [s 6] 2160/7 C 5 18.8g 109
2022-04-01 2022-04-01 Solvalla-4 Wind Knight Wind Knight   [v 10] 2140/2 B 5 15.2 188
2022-03-10 2022-03-10 Gävle-3 Le Boheme Le Boheme   [v 5] 2140/1 C 4 16.9 202
2022-03-10 2022-03-10 Gävle-1 Jupiter Sånna Jupiter Sånna   [v 11] 2180/4 B 3 18.7g 351
2022-03-10 2022-03-10 Gävle-5 Princess Orlando Princess Orlando   [s 9] 1640/5 D 2 14.6 284
2022-03-06 2022-03-06 Eskilstuna-8 Magiclight Magiclight   [s 7] 2140/8 C 4 16.1g 268
2022-02-25 2022-02-25 Romme-1 Komnes Anna* Komnes Anna*   [s 8] 2160/6 B 2 27.9 115
2022-02-19 2022-02-19 Bergsåker-1 Krakas Krakas   [s 6] 1640/5 B 4 14.9 104
2022-02-16 2022-02-16 Solvalla-3 Jupiter Sånna Jupiter Sånna   [v 11] 1640/7 B 0 g 574
2022-02-10 2022-02-10 Örebro-7 Magiclight Magiclight   [s 7] 2660/6 C 6 18.2 978
2022-02-06 2022-02-06 Gävle-6 Princess Orlando Princess Orlando   [s 9] 2140/1 D 0 18.3 1098
2022-02-06 2022-02-06 Gävle-2 Järvsö Kristian Järvsö Kristian   [v 7] 2160/4 D str
2022-01-28 2022-01-28 Romme-3 La Mauresque La Mauresque   [s 7] 2140/2 D 0 18.9g 142
2022-01-26 2022-01-26 Solvalla-7 Magiclight Magiclight   [s 7] 2160/12 B 6 17.1 928
2022-01-25 2022-01-25 Bollnäs-3 Jupiter Sånna Jupiter Sånna   [v 11] 2180/9 B 3 18.2 562
2022-01-17 2022-01-17 Romme-7 Magiclight Magiclight   [s 7] 2140/3 D 0 17.8 297
2022-01-17 2022-01-17 Romme-3 Järvsö Kristian Järvsö Kristian   [v 7] 2180/6 D 0 33.1 581
2022-01-15 2022-01-15 Gävle-1 Wind Knight Wind Knight   [v 10] 2140/7 B 4 15.2 89
2022-01-11 2022-01-11 Eskilstuna-7 Magiclight Magiclight   [s 7] 2140/9 D 4 15.9 1005
2022-01-11 2022-01-11 Eskilstuna-3 Digital Carpet Digital Carpet   [s 5] 2160/10 C 7 17.3 874
2022-01-04 2022-01-04 Bergsåker-3 Kong Henry Kong Henry   [v 11] 2160/7 B 0 29.6 40
2023-12-26 2023-12-26 Solvalla-12 Orlando Orlando   [s 7] 2140/1 C 0 g 115
2023-12-23 2023-12-23 Mantorp-1 King Chaos King Chaos   [v 5] 2140/8 C 2 15.4 20
2023-12-22 2023-12-22 Romme-5 Ninepoints Yankee Ninepoints Yankee   [v 8] 2180/9 B 0 g 184
2023-12-22 2023-12-22 Romme-2 Guli Fantom Guli Fantom   [v 6] 2140/4 B 1 26.5 26
2023-12-15 2023-12-15 Romme-3 Atheist Atheist   [v 7] 2140/6 C 0 19.3 214
2023-11-30 2023-11-30 Örebro-3 Absolute Speed Absolute Speed   [v 11] 2100/10 D 8 18.0 808
2023-11-26 2023-11-26 Rättvik-3 King Chaos King Chaos   [v 5] 2140/9 A 1 16.3 73
2023-11-22 2023-11-22 Solvalla-6 Condior Condior   [v 7] 2140/11 B 6 15.7 186
2023-11-20 2023-11-20 Polen-11 Secretary H.* Secretary H.*   [s 3] 2320/9 B 4 20.0 141
2023-11-20 2023-11-20 Polen-10 Ninepoints Lover* Ninepoints Lover*   [v 8] 1800/4 C 1 13.9 82
2023-11-20 2023-11-20 Polen-3 Bekke Stjernen* Bekke Stjernen*   [v 6] 1760/8 C 2 27.2 46
2023-11-15 2023-11-15 Solvalla-7 King Chaos King Chaos   [v 5] 2140/1 A 4 16.5 173
2023-11-10 2023-11-10 Romme-4 Baloo du Nord Baloo du Nord   [v 12] 2180/9 D 0 16.9 930
2023-11-09 2023-11-09 Örebro-4 Perfect Star Perfect Star   [s 6] 1609/1 C 4 15.1 58
2023-11-05 2023-11-05 Polen-8 Kaspian B.R.* Kaspian B.R.*   [v 5] 1800/1 C 2 15.5 25
2023-11-05 2023-11-05 Polen-3 Secretary H.* Secretary H.*   [s 3] 2300/1 A 3 20.8 141
2023-11-03 2023-11-03 Bollnäs-6 Spang Vinvar Spang Vinvar   [v 8] 2160/2 D str
2023-11-03 2023-11-03 Bollnäs-3 Tumble One Tumble One   [v 4] 1640/10 C 6 16.3 527
2023-11-01 2023-11-01 Bergsåker-4 Orlando Orlando   [s 7] 1640/8 C 2 14.1 271
2023-10-27 2023-10-27 Romme-3 Miss Chevy Neo Miss Chevy Neo   [s 5] 2140/7 A 0 g 61
2023-10-18 2023-10-18 Solvalla-8 Lightzon Lightzon   [v 6] 2640/8 C 7 15.8 916
2023-10-12 2023-10-12 Gävle-7 Creek's Nu Love* Creek's Nu Love*   [s 5] 2140/3 B 0 g 125
2023-10-11 2023-10-11 Bergsåker-5 Ninepoints Lover* Ninepoints Lover*   [v 8] 2140/3 B 1 14.9 107
2023-10-10 2023-10-10 Eskilstuna-7 Lightzon Lightzon   [v 6] 2140/9 B 4 15.0 196
2023-10-10 2023-10-10 Eskilstuna-3 Chiffchaff Chiffchaff   [s 6] 1640/5 C 0 g 552
2023-10-09 2023-10-09 Mantorp-5 M.T.Penelope M.T.Penelope   [s 6] 2140/5 C 0 g 1032
2023-10-05 2023-10-05 Örebro-1 Courage* Courage*   [s 5] 1609/12 B 0 20.3g 29
2023-09-30 2023-09-30 Åby-6 Ies Elisabet Ies Elisabet   [s 7] 2140/6 B 3 13.7 171
2023-09-28 2023-09-28 Örebro-6 Perfect Star Perfect Star   [s 6] 1609/4 D 3 13.6 62
2023-09-25 2023-09-25 Eskilstuna-9 Pandroklus Eck* Pandroklus Eck*   [v 6] 2140/6 A 0 15.0g 122
2023-09-16 2023-09-16 Eskilstuna-1 Perfect Star Perfect Star   [s 6] 2140/7 D 1 15.0 529
2023-09-01 2023-09-01 Östersund-4 Almaz Poderoso* Almaz Poderoso*   [s 4] 1640/1 D 0 15.7 579
2023-09-01 2023-09-01 Östersund-2 Importedfrmdetroit Importedfrmdetroit   [v 12] 2180/11 B str
2023-09-01 2023-09-01 Östersund-5 Rofstad Odin* Rofstad Odin*   [v 10] 2160/7 A 2 26.6 25
2023-08-31 2023-08-31 Örebro-2 Rheas Rheas   [s 5] 2100/7 C 0 18.5 838
2023-08-26 2023-08-26 Bergsåker-12 Carioca de Lou* Carioca de Lou*   [v 11] 2140/5 C 4 13.4 71
2023-08-18 2023-08-18 Bollnäs-5 Hazyshadeofwinter Hazyshadeofwinter   [s 6] 2140/10 B 0 g 59
2023-08-16 2023-08-16 Solvalla-1 Carioca de Lou* Carioca de Lou*   [v 11] 2140/1 C 3 13.7 97
2023-08-15 2023-08-15 Eskilstuna-1 Hurricane Hurricane   [v 6] 1640/5 C str
2023-08-12 2023-08-12 Åby-1 Carioca de Lou* Carioca de Lou*   [v 11] 1640/1 C 3 12.7 95
2023-08-11 2023-08-11 Gävle-7 Rio Alta Wine Rio Alta Wine   [v 6] 2140/5 B 6 13.7 14
2023-08-08 2023-08-08 Hagmyren-3 Gomnes Hans T.* Gomnes Hans T.*   [h 11] 2160/6 C 1 26.6 78
2023-08-06 2023-08-06 Polen-6 Ninepoints Lover* Ninepoints Lover*   [v 8] 2300/6 D 1 15.7 357
2023-08-06 2023-08-06 Polen-1 Rofstad Odin* Rofstad Odin*   [v 10] 2360/6 B 1 28.3 15
2023-08-05 2023-08-05 Tjeckien-3 Creek's Nu Love* Creek's Nu Love*   [s 5] 2100/6 D 5 14.1 191
2023-07-28 2023-07-28 Romme-3 Carioca de Lou* Carioca de Lou*   [v 11] 1640/5 C 2 11.3 74
2023-07-22 2023-07-22 Axevalla-1 Carioca de Lou* Carioca de Lou*   [v 11] 2160/8 D 2 13.4 311
2023-07-19 2023-07-19 Eskilstuna-6 Snowy Me Snowy Me   [s 5] 2140/7 D 0 16.3g 711
2023-07-19 2023-07-19 Eskilstuna-1 Magical Mile Magical Mile   [s 5] 2140/11 B 0 16.4 597
2023-07-18 2023-07-18 Lindesberg-5 Justhewayouare Justhewayouare   [s 7] 2140/11 A 3 17.0 47
2023-07-16 2023-07-16 Mantorp-5 Geisha Brick Geisha Brick   [s 5] 1640/3 A 0 g 140
2023-07-12 2023-07-12 Arvika-4 Goetmals Joe Goetmals Joe   [v 9] 2100/4 B 5 16.8 32
2023-07-01 2023-07-01 Bergsåker-4 Snowy Me Snowy Me   [s 5] 2140/7 C 1 15.3 176
2023-06-24 2023-06-24 Polen-3 Valour Kronos* Valour Kronos*   [v 9] 1800/4 C 1 13.4 66
2023-06-22 2023-06-22 Rättvik-5 Goetmals Joe Goetmals Joe   [v 9] 1640/11 C 3 14.4 258
2023-06-20 2023-06-20 ATG Jippo-2 Baloo du Nord Baloo du Nord   [v 12] 2100/1 D 4 17.8 606
2023-06-17 2023-06-17 Boden-6 Greenwich Greenwich   [v 7] 1640/8 C 5 14.5 286
2023-06-16 2023-06-16 Bollnäs-5 Lucia Lane Lucia Lane   [s 6] 1640/6 A 2 13.4 28
2023-06-14 2023-06-14 Lindesberg-4 Checklist Checklist   [v 6] 1640/1 A 4 16.0 104
2023-06-13 2023-06-13 Eskilstuna-5 Snowy Me Snowy Me   [s 5] 1640/8 C 0 15.2g 75
2023-06-13 2023-06-13 Eskilstuna-4 Baloo du Nord Baloo du Nord   [v 12] 2160/12 D 7 15.9 3179
2023-06-13 2023-06-13 Eskilstuna-1 Ninepoints Yankee Ninepoints Yankee   [v 8] 2140/2 C 6 14.9g 263
2023-06-01 2023-06-01 Bergsåker-8 Paulino Paulino   [v 9] 2140/5 D 0 g 664
2023-06-01 2023-06-01 Bergsåker-3 Holger Holger   [v 4] 2640/5 C 1 17.2 22
2023-05-30 2023-05-30 Eskilstuna-5 Snowy Me Snowy Me   [s 5] 2140/8 B 1 15.2 129
2023-05-25 2023-05-25 Örebro-6 Baloo du Nord Baloo du Nord   [v 12] 2160/11 C 3 16.9 454
2023-05-18 2023-05-18 Bergsåker-7 Kaspian B.R.* Kaspian B.R.*   [v 5] 1640/2 A 1 14.8 75
2023-05-18 2023-05-18 Bergsåker-4 Guli Rubin Guli Rubin   [v 11] 2180/15 B 0 27.5g 375
2023-05-09 2023-05-09 Eskilstuna-1 Capitol Wise As Capitol Wise As   [v 5] 2140/4 B 1 15.4 27
2023-05-06 2023-05-06 Gävle-3 My Sea My Sea   [v 8] 2180/7 C 4 15.9 123
2023-04-30 2023-04-30 Solvalla-1 Snowy Me Snowy Me   [s 5] 2140/3 A 1 16.1 24
2023-04-22 2023-04-22 Rättvik-9 No Remorse No Remorse   [v 5] 2640/4 C 7 17.1 111
2023-04-22 2023-04-22 Rättvik-3 Sippson Sippson   [v 11] 2180/10 B str
2023-04-16 2023-04-16 Solvalla-2 Reven Dejavu Reven Dejavu   [v 7] 1640/8 B 0 14.3 109
2023-04-07 2023-04-07 Färjestad-6 Lucia Lane Lucia Lane   [s 6] 2140/4 D 3 12.6 249
2023-04-07 2023-04-07 Färjestad-2 Guli Rubin Guli Rubin   [v 11] 2180/11 B 5 25.6 244
2023-04-06 2023-04-06 Örebro-5 Bottnas Ambassadör Bottnas Ambassadör   [v 13] 2160/5 B 7 19.1g 579
2023-04-01 2023-04-01 Eskilstuna-9 Amour Dimanche Amour Dimanche   [v 6] 2680/14 C 5 16.6 172
2023-03-31 2023-03-31 Örebro-3 Made of Stars Made of Stars   [v 7] 2100/3 B 1 14.3 60
2023-03-20 2023-03-20 Gävle-5 No Remorse No Remorse   [v 5] 1640/12 B 4 14.5 696
2023-03-20 2023-03-20 Gävle-2 Lino Band Lino Band   [v 6] 2140/2 C 0 g 204
2023-03-13 2023-03-13 Eskilstuna-6 Mr Brilliant Mr Brilliant   [v 6] 2140/7 B 0 g 58
2023-03-12 2023-03-12 Gävle-1 Guli Rubin Guli Rubin   [v 11] 2180/8 C 3 27.0 231
2023-03-03 2023-03-03 Bollnäs-10 Jet Lini Jet Lini   [v 9] 2160/7 D 3 18.2 143
2023-02-28 2023-02-28 Eskilstuna-7 Your Dreamlove Your Dreamlove   [s 7] 2140/8 B 7 16.4 56
2023-02-03 2023-02-03 Bollnäs-2 No Pressure No Pressure   [v 7] 1640/7 B 5 17.7 64
2024-05-27 2024-05-27 Rättvik-3 King Chaos King Chaos   [v 6] 2160/9 D 2 14.4 178
2024-05-19 2024-05-19 Polen-12 Bekke Stjernen* Bekke Stjernen*   [v 7] 2340/6 C 1 28.5 61
2024-05-19 2024-05-19 Polen-9 Acers Fantasy* Acers Fantasy*   [s 9] 2320/5 D 3 16.4 117
2024-05-19 2024-05-19 Polen-8 Quiteontime* Quiteontime*   [v 5] 2300/7 C 3 16.7 266
2024-05-19 2024-05-19 Polen-5 Gaia Barsk* Gaia Barsk*   [s 8] 2300/8 D 11 17.0 426
2024-05-19 2024-05-19 Polen-4 Creek's Nu Love* Creek's Nu Love*   [s 6] 2300/7 B 4 15.3 16
2024-05-18 2024-05-18 Gävle-1 Ploquepin Ploquepin   [v 6] 1640/9 C 0 20.4g 150
2024-05-14 2024-05-14 Eskilstuna-6 Amour Dimanche Amour Dimanche   [v 7] 2140/2 B str
2024-05-09 2024-05-09 Bergsåker-3 Valle Mattis* Valle Mattis*   [h 14] 1660/10 C 4 26.3g 47
2024-05-09 2024-05-09 Bergsåker-8 Kaspian B.R.* Kaspian B.R.*   [v 6] 2140/4 D 4 16.7 89
2024-05-09 2024-05-09 Bergsåker-7 Vrål Åke Vrål Åke   [v 7] 2160/3 D str
2024-05-09 2024-05-09 Bergsåker-4 Domino Brick Domino Brick   [v 9] 2140/5 C 0 17.4 1146
2024-05-03 2024-05-03 Rättvik-4 Amour Dimanche Amour Dimanche   [v 7] 1640/9 B 2 15.1 665
2024-05-01 2024-05-01 Solvalla-5 Drizzle Drizzle   [v 6] 2140/5 D 0 g 162
2024-04-28 2024-04-28 Romme-2 G.K.Xit G.K.Xit   [s 5] 2160/2 B 0 g 46
2024-04-27 2024-04-27 Örebro-4 Lightzon Lightzon   [v 7] 2100/6 B str
2024-04-26 2024-04-26 Bollnäs-9 Charles du Sud Charles du Sud   [v 8] 2140/4 C 2 18.3 167
2024-04-19 2024-04-19 Romme-8 Perfect Score Ås Perfect Score Ås   [v 7] 2140/12 A 4 15.2 96
2024-04-06 2024-04-06 Romme-6 Believeinmiracles Believeinmiracles   [s 9] 2140/4 D 0 16.9 776
2024-04-06 2024-04-06 Romme-2 Bone Hard Flash Bone Hard Flash   [v 8] 2160/6 B 5 16.9 684
2024-03-29 2024-03-29 Färjestad-2 Valle Mattis* Valle Mattis*   [h 14] 2180/9 B 3 26.0 193
2024-02-28 2024-02-28 Solvalla-4 A Nunja Kid A Nunja Kid   [v 6] 2140/12 C 6 17.5 751
2024-02-24 2024-02-24 Örebro-1 King Chaos King Chaos   [v 6] 1609/10 D 0 g 87
2024-02-17 2024-02-17 Bergsåker-1 Ninepoints Lasse Ninepoints Lasse   [v 6] 2140/5 B 0 g 23
2024-02-02 2024-02-02 Romme-4 Vinci Love Vinci Love   [s 6] 2140/3 D 0 g 598
2024-01-31 2024-01-31 Solvalla-6 Freke Freke   [v 10] 2640/3 D 0 19.8 803
2024-01-28 2024-01-28 Örebro-6 King Chaos King Chaos   [v 6] 2160/10 D 0 g 25
2024-01-24 2024-01-24 Solvalla-6 Flexible Launcher Flexible Launcher   [v 8] 2140/7 B 3 16.4 108
2024-01-24 2024-01-24 Solvalla-3 Timotejs Peken Timotejs Peken   [v 6] 2140/4 C 0 19.5 146
2024-01-19 2024-01-19 Gävle-2 Freke Freke   [v 10] 2140/5 D 0 18.1 1090
2024-01-12 2024-01-12 Romme-4 Flexible Launcher Flexible Launcher   [v 8] 2160/3 C 2 15.9 200
2024-01-10 2024-01-10 Bergsåker-4 Ninepoints Lover* Ninepoints Lover*   [v 9] 2140/1 B 1 15.4 23
2024-01-06 2024-01-06 Romme-6 Ajlexes Abraxas Ajlexes Abraxas   [v 6] 1640/2 C 0 14.5 366
2024-01-06 2024-01-06 Romme-1 Timotejs Peken Timotejs Peken   [v 6] 2140/7 C 3 17.9 171
2024-01-01 2024-01-01 Polen-5 Ninepoints Lover* Ninepoints Lover*   [v 8] 2300/4 C 7 18.1 48
2024-01-01 2024-01-01 Polen-4 Dibaba* Dibaba*   [s 4] 2300/2 C 2 19.2 164
2024-01-01 2024-01-01 Polen-3 Z.M.'s Jerven* Z.M.'s Jerven*   [v 10] 1800/7 B 0 g 43



ATG (Aktiebolaget Trav och Galopp) är inte innehavare till Gratistravtips.se, utan förser oss enbart med data om aktuella startlistor, hästar, tränare och kuskar.
Denna information tillhandahålls enligt samarbetsavtal med ATG. Samtliga rättigheter tillhör ATG. Inga bilder, texter eller sammanställd information, eller utdrag därav, får användas för kommersiellt bruk eller i övrigt i strid mot reglerna i lag (1960:729) om upphovsrätt till litterära och konstnärliga verk.
Gratistravtips.se har ett aktivt samarbetsavtal med Svenska Spel Sport & Casino AB samt AB Svenska Spel och marknadsför deras produkter.
Spel för dig som fyllt 18 år
Spelproblem? Ring Stödlinjen på 020-81 91 00 eller besök Stödlinjens hemsida: www.stodlinjen.se. Du kan även testa dina spelvanor på: Spelalagom.se